| Temperature (°F) | Max | Average | Min |
|---|---|---|---|
| Max Temperature | 81 | 58.5 | 39 |
| Avg Temperature | 72.88 | 52.77 | 35.33 |
| Min Temperature | 65 | 45.53 | 29 |
| Dew Point (°F) | Max | Average | Min |
|---|---|---|---|
| Dew Point | 57 | 33.96 | 12 |
| Precipitation (in) | Max | Average | Min | Sum |
|---|---|---|---|---|
| Precipitation | 0.93 | 0.10 | 0.00 | 3.00 |
| Snowdepth | 0.00 | 0.00 | 0.00 | 0.00 |
| Wind (mph) | Max | Average | Min |
|---|---|---|---|
| Wind | 30 | 11.27 | 0 |
| Gust Wind | 51 | 8.17 | 0 |
| Sea Level Pressure (in) | Max | Average | Min |
|---|---|---|---|
| Sea Level Pressure | 30.52 | 29.95 | 29.28 |
| Date | Temperature (°F) | Dew Point (°F) | Humidity (%) | Wind Speed (mph) | Pressure (in) | Precipitation (in) | ||||||||||
|---|---|---|---|---|---|---|---|---|---|---|---|---|---|---|---|---|
| Max | Avg | Min | Max | Avg | Min | Max | Avg | Min | Max | Avg | Min | Max | Avg | Min | ||
| 11/30/2024 | 39 | 35.3 | 29 | 19 | 15.0 | 12 | 52 | 43.9 | 32 | 18 | 14.1 | 8 | 30.1 | 30.0 | 29.9 | 0.00 |
| 11/29/2024 | 41 | 42.1 | 32 | 30 | 25.3 | 19 | 60 | 51.8 | 40 | 17 | 12.8 | 7 | 29.9 | 29.9 | 29.8 | 0.70 |
| 11/28/2024 | 47 | 46.8 | 36 | 47 | 38.1 | 27 | 87 | 72.8 | 43 | 23 | 11.2 | 0 | 29.9 | 29.6 | 29.4 | 0.09 |
| 11/27/2024 | 51 | 48.7 | 44 | 28 | 26.8 | 24 | 52 | 43.1 | 34 | 12 | 8.5 | 3 | 30.0 | 30.0 | 29.9 | 0.25 |
| 11/26/2024 | 53 | 54.3 | 45 | 52 | 42.0 | 29 | 84 | 64.7 | 45 | 16 | 9.4 | 0 | 30.0 | 29.8 | 29.8 | 0.00 |
| 11/25/2024 | 58 | 49.6 | 48 | 33 | 28.3 | 25 | 58 | 44.5 | 31 | 15 | 8.0 | 0 | 30.1 | 30.0 | 30.0 | 0.00 |
| 11/24/2024 | 56 | 49.8 | 43 | 33 | 30.5 | 27 | 54 | 47.8 | 40 | 24 | 17.3 | 12 | 30.0 | 29.9 | 29.7 | 0.00 |
| 11/23/2024 | 54 | 44.9 | 47 | 36 | 34.0 | 31 | 83 | 66.7 | 48 | 29 | 16.5 | 6 | 29.7 | 29.5 | 29.4 | 0.29 |
| 11/22/2024 | 51 | 39.6 | 39 | 34 | 32.2 | 30 | 83 | 75.0 | 65 | 24 | 12.8 | 0 | 29.4 | 29.3 | 29.3 | 0.93 |
| 11/21/2024 | 41 | 47.9 | 38 | 45 | 42.3 | 33 | 87 | 80.9 | 69 | 22 | 12.6 | 6 | 29.6 | 29.5 | 29.3 | 0.58 |
| 11/20/2024 | 54 | 55.4 | 38 | 44 | 41.0 | 37 | 69 | 58.7 | 49 | 16 | 8.4 | 3 | 29.8 | 29.7 | 29.6 | 0.00 |
| 11/19/2024 | 59 | 54.2 | 53 | 37 | 33.0 | 30 | 58 | 45.3 | 32 | 15 | 6.6 | 0 | 30.0 | 29.9 | 29.8 | 0.00 |
| 11/18/2024 | 62 | 58.1 | 48 | 41 | 34.5 | 30 | 52 | 41.7 | 32 | 18 | 11.8 | 6 | 29.9 | 29.8 | 29.8 | 0.00 |
| 11/17/2024 | 66 | 54.8 | 51 | 31 | 28.0 | 25 | 50 | 36.7 | 26 | 13 | 7.3 | 0 | 30.1 | 30.0 | 29.9 | 0.00 |
| 11/16/2024 | 63 | 54.1 | 47 | 30 | 27.8 | 23 | 48 | 37.1 | 26 | 21 | 16.0 | 10 | 30.0 | 29.9 | 29.8 | 0.00 |
| 11/15/2024 | 63 | 50.5 | 47 | 33 | 25.3 | 14 | 45 | 37.6 | 29 | 15 | 11.0 | 5 | 30.0 | 29.9 | 29.7 | 0.00 |
| 11/14/2024 | 59 | 43.5 | 44 | 29 | 25.2 | 19 | 53 | 48.6 | 42 | 16 | 8.5 | 0 | 30.4 | 30.2 | 30.0 | 0.00 |
| 11/13/2024 | 47 | 43.7 | 39 | 23 | 19.5 | 16 | 50 | 38.9 | 27 | 17 | 10.1 | 0 | 30.5 | 30.4 | 30.4 | 0.00 |
| 11/12/2024 | 51 | 50.8 | 37 | 39 | 29.9 | 22 | 55 | 44.9 | 37 | 26 | 18.6 | 12 | 30.3 | 30.0 | 29.7 | 0.00 |
| 11/11/2024 | 62 | 62.6 | 42 | 54 | 47.5 | 39 | 87 | 60.3 | 37 | 22 | 14.7 | 7 | 29.8 | 29.7 | 29.6 | 0.16 |
| 11/10/2024 | 69 | 53.7 | 56 | 52 | 34.6 | 24 | 84 | 50.6 | 33 | 13 | 6.9 | 0 | 30.4 | 30.2 | 29.9 | 0.00 |
| 11/9/2024 | 59 | 50.4 | 45 | 33 | 22.5 | 19 | 45 | 34.1 | 24 | 21 | 11.1 | 3 | 30.4 | 30.3 | 30.0 | 0.00 |
| 11/8/2024 | 55 | 60.0 | 45 | 39 | 34.6 | 29 | 55 | 40.1 | 22 | 30 | 13.6 | 0 | 30.0 | 29.9 | 29.8 | 0.00 |
| 11/7/2024 | 70 | 67.3 | 52 | 57 | 47.6 | 36 | 68 | 50.3 | 37 | 17 | 10.8 | 5 | 30.1 | 30.0 | 30.0 | 0.00 |
| 11/6/2024 | 75 | 72.9 | 56 | 57 | 55.8 | 53 | 75 | 55.6 | 42 | 16 | 11.5 | 6 | 30.1 | 30.0 | 29.9 | 0.00 |
| 11/5/2024 | 81 | 63.3 | 65 | 57 | 53.0 | 48 | 81 | 70.0 | 50 | 15 | 8.8 | 0 | 30.3 | 30.2 | 30.1 | 0.00 |
| 11/4/2024 | 74 | 52.9 | 54 | 47 | 38.2 | 24 | 75 | 58.0 | 41 | 15 | 7.5 | 0 | 30.5 | 30.4 | 30.3 | 0.00 |
| 11/3/2024 | 59 | 48.2 | 46 | 30 | 24.6 | 17 | 60 | 41.5 | 24 | 13 | 7.0 | 0 | 30.5 | 30.4 | 30.4 | 0.00 |
| 11/2/2024 | 55 | 56.3 | 41 | 40 | 34.3 | 32 | 52 | 43.9 | 35 | 15 | 11.6 | 3 | 30.4 | 30.3 | 30.1 | 0.00 |
| 11/1/2024 | 81 | 71.4 | 59 | 55 | 47.4 | 27 | 61 | 44.8 | 17 | 17 | 13.3 | 8 | 30.1 | 29.9 | 29.9 | 0.00 |